Location: Newark
(41.0400°S, 62.7845°W)
Time: 03:17:09
(UTC+00:00)

Transit 2A - Pass Details

Date: 04 December 2021
Orbit: 591 x 967 km, 66.7° (Epoch: 20 January)

Event Time Altitude Azimuth Distance (km) Brightness Sun altitude
Rises 16:12:58 0° 325° (NW) 3,227 9.5 71.1°
Reaches altitude 10° 16:15:29 10° 322° (NW) 2,247 8.8 71.1°
Maximum altitude 16:20:32 66° 239° (WSW) 753 7.1 70.9°
Drops below altitude 10° 16:25:10 10° 156° (SSE) 2,063 8.2 70.6°
Sets 16:27:23 0° 152° (SSE) 2,940 8.8 70.5°
